TimeEDT,TemperatureF,Dew PointF,Humidity,Sea Level PressureIn,VisibilityMPH,Wind Direction,Wind SpeedMPH,Gust SpeedMPH,PrecipitationIn,Events,Conditions,WindDirDegrees,DateUTC
12:15 AM,41.0,37.4,87,30.24,10.0,Calm,Calm,-,N/A,,Clear,0,2012-10-12 04:15:00
12:35 AM,39.2,37.4,93,30.24,10.0,SW,3.5,-,N/A,,Clear,230,2012-10-12 04:35:00
12:55 AM,37.4,37.4,100,30.24,10.0,WSW,4.6,-,N/A,,Clear,240,2012-10-12 04:55:00
1:15 AM,39.2,37.4,93,30.25,10.0,West,3.5,-,N/A,,Clear,260,2012-10-12 05:15:00
1:35 AM,39.2,37.4,93,30.25,10.0,WSW,3.5,-,N/A,,Clear,240,2012-10-12 05:35:00
1:55 AM,37.4,37.4,100,30.24,10.0,SW,4.6,-,N/A,,Clear,230,2012-10-12 05:55:00
2:15 AM,41.0,37.4,87,30.24,10.0,SSW,3.5,-,N/A,,Clear,210,2012-10-12 06:15:00
2:35 AM,37.4,37.4,100,30.24,10.0,SW,3.5,-,N/A,,Clear,220,2012-10-12 06:35:00
2:55 AM,37.4,35.6,93,30.24,10.0,SW,4.6,-,N/A,,Clear,230,2012-10-12 06:55:00
3:15 AM,39.2,37.4,93,30.24,10.0,SW,6.9,-,N/A,,Clear,230,2012-10-12 07:15:00
3:35 AM,39.2,37.4,93,30.23,10.0,SSW,4.6,-,N/A,,Clear,200,2012-10-12 07:35:00
3:55 AM,41.0,37.4,87,30.22,10.0,SSW,4.6,-,N/A,,Clear,210,2012-10-12 07:55:00
4:15 AM,37.4,37.4,100,30.24,10.0,Calm,Calm,-,N/A,,Clear,0,2012-10-12 08:15:00
4:35 AM,39.2,37.4,93,30.25,10.0,West,4.6,-,N/A,,Mostly Cloudy,260,2012-10-12 08:35:00
4:55 AM,41.0,39.2,93,30.26,10.0,West,3.5,-,N/A,,Overcast,260,2012-10-12 08:55:00
5:15 AM,42.8,41.0,93,30.26,10.0,WSW,3.5,-,N/A,,Overcast,250,2012-10-12 09:15:00
5:35 AM,44.6,41.0,87,30.27,10.0,WSW,5.8,-,N/A,,Overcast,250,2012-10-12 09:35:00
5:55 AM,44.6,41.0,87,30.27,10.0,WSW,5.8,-,N/A,,Overcast,240,2012-10-12 09:55:00
6:15 AM,44.6,41.0,87,30.27,10.0,WSW,4.6,-,N/A,,Mostly Cloudy,240,2012-10-12 10:15:00
6:35 AM,46.4,39.2,76,30.25,10.0,Calm,Calm,-,N/A,,Scattered Clouds,0,2012-10-12 10:35:00
6:55 AM,42.8,41.0,93,30.26,10.0,Calm,Calm,-,N/A,,Clear,0,2012-10-12 10:55:00
7:15 AM,41.0,41.0,100,30.29,10.0,Calm,Calm,-,N/A,,Scattered Clouds,0,2012-10-12 11:15:00
7:35 AM,41.0,41.0,100,30.29,10.0,WSW,3.5,-,N/A,,Mostly Cloudy,240,2012-10-12 11:35:00
7:55 AM,42.8,41.0,93,30.29,10.0,Calm,Calm,-,N/A,,Mostly Cloudy,0,2012-10-12 11:55:00
8:35 AM,42.8,41.0,93,30.30,10.0,Calm,Calm,-,N/A,,Scattered Clouds,0,2012-10-12 12:35:00
8:55 AM,42.8,41.0,93,30.32,10.0,Calm,Calm,-,N/A,,Scattered Clouds,0,2012-10-12 12:55:00
9:15 AM,46.4,42.8,87,30.32,10.0,Calm,Calm,-,N/A,,Mostly Cloudy,0,2012-10-12 13:15:00
9:35 AM,50.0,42.8,76,30.32,10.0,Calm,Calm,-,N/A,,Scattered Clouds,0,2012-10-12 13:35:00
9:55 AM,51.8,42.8,71,30.32,10.0,Calm,Calm,-,N/A,,Clear,0,2012-10-12 13:55:00
10:15 AM,51.8,41.0,67,30.33,10.0,Calm,Calm,-,N/A,,Scattered Clouds,0,2012-10-12 14:15:00
10:35 AM,53.6,39.2,58,30.34,10.0,Calm,Calm,-,N/A,,Mostly Cloudy,0,2012-10-12 14:35:00
10:55 AM,55.4,39.2,54,30.33,10.0,Calm,Calm,-,N/A,,Overcast,0,2012-10-12 14:55:00
11:15 AM,53.6,41.0,62,30.33,10.0,Calm,Calm,-,N/A,,Overcast,0,2012-10-12 15:15:00
11:35 AM,55.4,41.0,58,30.34,10.0,East,3.5,-,N/A,,Overcast,90,2012-10-12 15:35:00
11:55 AM,55.4,41.0,58,30.35,10.0,NE,6.9,-,N/A,,Overcast,50,2012-10-12 15:55:00
12:15 PM,59.0,41.0,51,30.35,10.0,ENE,8.1,-,N/A,,Overcast,70,2012-10-12 16:15:00
12:35 PM,59.0,41.0,51,30.35,10.0,ENE,6.9,-,N/A,,Mostly Cloudy,70,2012-10-12 16:35:00
12:55 PM,60.8,41.0,48,30.35,10.0,East,3.5,-,N/A,,Clear,90,2012-10-12 16:55:00
1:15 PM,60.8,41.0,48,30.34,10.0,ENE,5.8,-,N/A,,Clear,60,2012-10-12 17:15:00
1:55 PM,60.8,42.8,52,30.33,10.0,NE,6.9,-,N/A,,Clear,40,2012-10-12 17:55:00
2:55 PM,64.4,42.8,45,30.31,10.0,NNE,5.8,-,N/A,,Clear,30,2012-10-12 18:55:00
3:15 PM,64.4,42.8,45,30.31,10.0,Calm,Calm,-,N/A,,Clear,0,2012-10-12 19:15:00
3:35 PM,64.4,42.8,45,30.31,10.0,NNE,6.9,-,N/A,,Clear,30,2012-10-12 19:35:00
4:15 PM,64.4,42.8,45,30.31,10.0,NE,4.6,-,N/A,,Clear,40,2012-10-12 20:15:00
4:35 PM,62.6,42.8,48,30.31,10.0,ENE,5.8,-,N/A,,Clear,70,2012-10-12 20:35:00
4:55 PM,62.6,42.8,48,30.31,10.0,NE,3.5,-,N/A,,Clear,50,2012-10-12 20:55:00
5:15 PM,62.6,42.8,48,30.32,10.0,NE,5.8,-,N/A,,Clear,50,2012-10-12 21:15:00
5:35 PM,62.6,42.8,48,30.32,10.0,North,4.6,-,N/A,,Clear,10,2012-10-12 21:35:00
5:55 PM,62.6,42.8,48,30.32,10.0,NNE,4.6,-,N/A,,Clear,30,2012-10-12 21:55:00
6:15 PM,60.8,42.8,52,30.32,10.0,NE,3.5,-,N/A,,Clear,40,2012-10-12 22:15:00
6:55 PM,59.0,42.8,55,30.33,10.0,Calm,Calm,-,N/A,,Clear,0,2012-10-12 22:55:00
7:15 PM,57.2,42.8,59,30.33,10.0,Calm,Calm,-,N/A,,Clear,0,2012-10-12 23:15:00
7:35 PM,55.4,42.8,63,30.33,10.0,NE,3.5,-,N/A,,Clear,50,2012-10-12 23:35:00
7:55 PM,53.6,42.8,67,30.33,10.0,ENE,4.6,-,N/A,,Clear,60,2012-10-12 23:55:00
8:15 PM,53.6,42.8,67,30.33,10.0,ENE,5.8,-,N/A,,Clear,60,2012-10-13 00:15:00
8:35 PM,53.6,42.8,67,30.33,10.0,ENE,5.8,-,N/A,,Clear,70,2012-10-13 00:35:00
8:55 PM,51.8,42.8,71,30.34,10.0,ENE,3.5,-,N/A,,Clear,60,2012-10-13 00:55:00
9:15 PM,51.8,42.8,71,30.34,10.0,ENE,3.5,-,N/A,,Clear,60,2012-10-13 01:15:00
9:35 PM,51.8,42.8,71,30.35,10.0,ENE,3.5,-,N/A,,Clear,60,2012-10-13 01:35:00
10:15 PM,50.0,42.8,76,30.36,10.0,ENE,4.6,-,N/A,,Clear,60,2012-10-13 02:15:00
10:35 PM,48.2,42.8,82,30.36,10.0,ENE,4.6,-,N/A,,Clear,60,2012-10-13 02:35:00
10:55 PM,48.2,42.8,82,30.36,10.0,ENE,5.8,-,N/A,,Clear,70,2012-10-13 02:55:00
11:15 PM,46.4,41.0,81,30.36,10.0,ENE,3.5,-,N/A,,Clear,70,2012-10-13 03:15:00